Tracking 30995 objects as of 7-Jul-2025
HD Live streaming from Space Station
objects crossing your sky now

STRIX-4

Track STRIX-4 now!
10-day predictions


NORAD ID: 60352
Int'l Code: 2024-137A
Perigee: 503.2 km
Apogee: 523.6 km
Inclination: 43.0 °
Period: 94.7 minutes
Semi major axis: 6884 km
RCS: Unknown
Launch date: August 2, 2024
Source: Japan (JPN)
Launch site: Rocket Lab Launch Complex (RLLC)
Your satellite tracking list
NOAA 16 DEB
Track 1 satellite(s)




NASA's NSSDC Master Catalog

Two Line Element Set (TLE):
1 60352U 24137A   25187.80865647  .00009499  00000-0  44395-3 0  9999
2 60352  43.0213  70.2114 0014785 213.5445 146.4468 15.19859790 51255
Source of the keplerian elements: AFSPC